• Em Portugal
  • Lista de países
  • Para 7 dias
  • Temperatura da água
  • Mapas de satélite
  • Mapa do tempo
  • Widgets de tempo
  • user-avatar
    Iniciar Sessão

    Previsão horária em Tarpnowo

    Hoje, 18 Outubro, Quinta-feira

    Tempo Temperatura Precipitação Vento Pressão Humidade
    00:00 +13°C° 0 mm 1 m/s 760 mmHg 71%
    01:00 +13°C° 0 mm 1 m/s 760 mmHg 72%
    02:00 +13°C° 0 mm 1 m/s 760 mmHg 73%
    03:00 +13°C° 0 mm 1 m/s 760 mmHg 74%
    04:00 +12°C° 0 mm 1 m/s 760 mmHg 76%
    05:00 +12°C° 0 mm 1 m/s 760 mmHg 76%
    06:00 +12°C° 0 mm 1 m/s 760 mmHg 77%
    07:00 +12°C° 0 mm 1 m/s 760 mmHg 78%
    08:00 +14°C° 0 mm 1 m/s 760 mmHg 71%
    09:00 +16°C° 0 mm 1 m/s 760 mmHg 65%
    10:00 +18°C° 0 mm 1 m/s 760 mmHg 59%
    11:00 +18°C° 0 mm 2 m/s 760 mmHg 58%
    12:00 +19°C° 0 mm 2 m/s 760 mmHg 57%
    13:00 +19°C° 0 mm 3 m/s 760 mmHg 55%
    14:00 +19°C° 0 mm 3 m/s 760 mmHg 60%
    15:00 +18°C° 0 mm 3 m/s 760 mmHg 66%
    16:00 +17°C° 0 mm 3 m/s 760 mmHg 71%
    17:00 +16°C° 0 mm 3 m/s 760 mmHg 76%
    18:00 +14°C° 0 mm 3 m/s 761 mmHg 82%
    19:00 +13°C° 0 mm 3 m/s 761 mmHg 88%
    20:00 +12°C° 0 mm 3 m/s 761 mmHg 87%
    21:00 +12°C° 0 mm 3 m/s 762 mmHg 87%
    22:00 +11°C° 0 mm 3 m/s 762 mmHg 86%
    23:00 +11°C° 0 mm 3 m/s 762 mmHg 86%

    Amanhã, 19 Outubro, Sexta-feira

    Tempo Temperatura Precipitação Vento Pressão Humidade
    00:00 +11°C° 0 mm 3 m/s 762 mmHg 85%
    01:00 +10°C° 0 mm 3 m/s 762 mmHg 84%
    02:00 +10°C° 0 mm 2 m/s 762 mmHg 86%
    03:00 +10°C° 0 mm 2 m/s 763 mmHg 87%
    04:00 +9°C° 0 mm 2 m/s 763 mmHg 89%
    05:00 +9°C° 0 mm 2 m/s 763 mmHg 90%
    06:00 +9°C° 0 mm 2 m/s 763 mmHg 90%
    07:00 +9°C° 0 mm 2 m/s 763 mmHg 91%
    08:00 +10°C° 0 mm 2 m/s 764 mmHg 83%
    09:00 +13°C° 0 mm 2 m/s 764 mmHg 74%
    10:00 +14°C° 0 mm 2 m/s 764 mmHg 66%
    11:00 +15°C° 0 mm 2 m/s 764 mmHg 61%
    12:00 +16°C° 0 mm 2 m/s 764 mmHg 57%
    13:00 +16°C° 0 mm 2 m/s 764 mmHg 53%
    14:00 +16°C° 0 mm 2 m/s 764 mmHg 56%
    15:00 +15°C° 0 mm 2 m/s 764 mmHg 60%
    16:00 +14°C° 0 mm 2 m/s 764 mmHg 64%
    17:00 +13°C° 0 mm 2 m/s 764 mmHg 69%
    18:00 +10°C° 0 mm 2 m/s 765 mmHg 75%
    19:00 +9°C° 0 mm 2 m/s 765 mmHg 81%
    20:00 +9°C° 0 mm 2 m/s 765 mmHg 82%
    21:00 +8°C° 0 mm 2 m/s 765 mmHg 83%
    22:00 +8°C° 0 mm 2 m/s 765 mmHg 84%
    23:00 +8°C° 0 mm 2 m/s 766 mmHg 86%

    Depois de amanhã, 20 Outubro, Sábado

    Tempo Temperatura Precipitação Vento Pressão Humidade
    00:00 +8°C° 0 mm 2 m/s 766 mmHg 87%
    01:00 +7°C° 0 mm 2 m/s 766 mmHg 88%
    02:00 +7°C° 0 mm 2 m/s 766 mmHg 89%
    03:00 +7°C° 0 mm 2 m/s 766 mmHg 89%
    04:00 +7°C° 0 mm 2 m/s 766 mmHg 90%
    05:00 +7°C° 0 mm 2 m/s 766 mmHg 90%
    06:00 +8°C° 0 mm 2 m/s 767 mmHg 90%
    07:00 +8°C° 0 mm 2 m/s 767 mmHg 90%
    08:00 +9°C° 0 mm 3 m/s 767 mmHg 84%
    09:00 +10°C° 0 mm 4 m/s 767 mmHg 77%
    10:00 +11°C° 0 mm 4 m/s 767 mmHg 70%
    11:00 +12°C° 0 mm 4 m/s 767 mmHg 68%
    12:00 +12°C° 0 mm 5 m/s 767 mmHg 65%
    13:00 +12°C° 0 mm 5 m/s 768 mmHg 62%
    14:00 +12°C° 0 mm 5 m/s 767 mmHg 65%
    15:00 +10°C° 0 mm 5 m/s 767 mmHg 68%
    16:00 +10°C° 0 mm 5 m/s 767 mmHg 71%
    17:00 +10°C° 0.1 mm 5 m/s 767 mmHg 74%
    18:00 +10°C° 0.1 mm 5 m/s 767 mmHg 77%
    19:00 +10°C° 0.1 mm 5 m/s 767 mmHg 80%
    20:00 +9°C° 0 mm 5 m/s 767 mmHg 83%
    21:00 +10°C° 0 mm 4 m/s 767 mmHg 87%
    22:00 +8°C° 0 mm 4 m/s 767 mmHg 90%
    23:00 +9°C° 0 mm 3 m/s 767 mmHg 91%

    21 Outubro, Domingo

    Tempo Temperatura Precipitação Vento Pressão Humidade
    00:00 +9°C° 0 mm 3 m/s 768 mmHg 91%
    01:00 +9°C° 0 mm 3 m/s 768 mmHg 92%
    02:00 +9°C° 0 mm 2 m/s 768 mmHg 92%
    03:00 +8°C° 0 mm 2 m/s 767 mmHg 92%
    04:00 +8°C° 0 mm 2 m/s 767 mmHg 93%
    05:00 +8°C° 0 mm 2 m/s 767 mmHg 93%
    06:00 +8°C° 0 mm 2 m/s 767 mmHg 94%
    07:00 +8°C° 0 mm 2 m/s 767 mmHg 95%
    08:00 +9°C° 0 mm 2 m/s 768 mmHg 91%
    09:00 +10°C° 0 mm 2 m/s 768 mmHg 87%
    10:00 +12°C° 0 mm 3 m/s 768 mmHg 82%
    11:00 +12°C° 0 mm 3 m/s 767 mmHg 81%
    12:00 +12°C° 0 mm 3 m/s 767 mmHg 80%
    13:00 +12°C° 0 mm 4 m/s 767 mmHg 79%
    14:00 +12°C° 0 mm 3 m/s 767 mmHg 80%
    15:00 +12°C° 0 mm 3 m/s 766 mmHg 81%
    16:00 +11°C° 0 mm 3 m/s 766 mmHg 82%
    17:00 +11°C° 0 mm 3 m/s 766 mmHg 86%
    18:00 +10°C° 0 mm 3 m/s 765 mmHg 89%
    19:00 +9°C° 0 mm 3 m/s 765 mmHg 93%
    20:00 +8°C° 0 mm 4 m/s 765 mmHg 92%
    21:00 +8°C° 0 mm 4 m/s 765 mmHg 92%
    22:00 +8°C° 0 mm 4 m/s 765 mmHg 92%
    23:00 +8°C° 0 mm 4 m/s 765 mmHg 88%

    22 Outubro, Segunda-feira

    Tempo Temperatura Precipitação Vento Pressão Humidade
    00:00 +8°C° 0 mm 4 m/s 764 mmHg 85%
    01:00 +10°C° 0 mm 4 m/s 764 mmHg 82%
    02:00 +9°C° 0 mm 5 m/s 764 mmHg 79%
    03:00 +9°C° 0 mm 5 m/s 763 mmHg 75%
    04:00 +9°C° 0 mm 5 m/s 763 mmHg 72%
    05:00 +9°C° 0 mm 5 m/s 763 mmHg 71%
    06:00 +9°C° 0 mm 5 m/s 763 mmHg 69%
    07:00 +10°C° 0 mm 4 m/s 763 mmHg 68%
    08:00 +9°C° 0.3 mm 5 m/s 763 mmHg 72%
    09:00 +10°C° 0.3 mm 5 m/s 763 mmHg 75%
    10:00 +10°C° 0.3 mm 5 m/s 764 mmHg 79%
    11:00 +10°C° 0.1 mm 5 m/s 764 mmHg 75%
    12:00 +11°C° 0.1 mm 6 m/s 764 mmHg 71%
    13:00 +13°C° 0.1 mm 6 m/s 764 mmHg 67%
    14:00 +11°C° 0 mm 6 m/s 764 mmHg 66%
    15:00 +10°C° 0 mm 6 m/s 764 mmHg 65%
    16:00 +10°C° 0 mm 6 m/s 764 mmHg 65%
    17:00 +9°C° 0 mm 6 m/s 764 mmHg 67%
    18:00 +8°C° 0 mm 6 m/s 764 mmHg 69%
    19:00 +8°C° 0 mm 5 m/s 764 mmHg 72%
    20:00 +7°C° 0 mm 5 m/s 764 mmHg 72%
    21:00 +7°C° 0 mm 5 m/s 764 mmHg 72%
    22:00 +7°C° 0 mm 5 m/s 764 mmHg 72%
    23:00 +7°C° 0 mm 5 m/s 764 mmHg 74%

    23 Outubro, Terça-feira

    Tempo Temperatura Precipitação Vento Pressão Humidade
    00:00 +7°C° 0 mm 5 m/s 763 mmHg 75%
    01:00 +7°C° 0 mm 5 m/s 763 mmHg 77%
    02:00 +7°C° 0.1 mm 5 m/s 762 mmHg 78%
    03:00 +7°C° 0.1 mm 6 m/s 761 mmHg 79%
    04:00 +7°C° 0.1 mm 6 m/s 760 mmHg 81%
    05:00 +5°C° 0.2 mm 6 m/s 760 mmHg 82%
    06:00 +5°C° 0.2 mm 6 m/s 759 mmHg 84%
    07:00 +5°C° 0.2 mm 6 m/s 758 mmHg 86%
    08:00 +5°C° 0.9 mm 6 m/s 758 mmHg 86%
    09:00 +5°C° 0.9 mm 6 m/s 757 mmHg 86%
    10:00 +7°C° 0.9 mm 6 m/s 757 mmHg 86%
    11:00 +7°C° 0.5 mm 5 m/s 756 mmHg 84%
    12:00 +7°C° 0.5 mm 5 m/s 756 mmHg 82%
    13:00 +8°C° 0.5 mm 4 m/s 755 mmHg 80%
    14:00 +8°C° 0.6 mm 4 m/s 755 mmHg 80%
    15:00 +7°C° 0.6 mm 4 m/s 755 mmHg 79%
    16:00 +8°C° 0.6 mm 3 m/s 755 mmHg 78%
    17:00 +7°C° 0.2 mm 4 m/s 755 mmHg 79%
    18:00 +6°C° 0.2 mm 4 m/s 756 mmHg 79%
    19:00 +6°C° 0.2 mm 5 m/s 756 mmHg 80%
    20:00 +5°C° 0 mm 5 m/s 757 mmHg 79%
    21:00 +5°C° 0 mm 5 m/s 757 mmHg 77%
    22:00 +5°C° 0 mm 5 m/s 758 mmHg 76%
    23:00 +5°C° 0 mm 5 m/s 758 mmHg 76%
    Mostrar mais